TimeMST,TemperatureF,Dew PointF,Humidity,Sea Level PressureIn,VisibilityMPH,Wind Direction,Wind SpeedMPH,Gust SpeedMPH,PrecipitationIn,Events,Conditions,WindDirDegrees,DateUTC
12:05 AM,10.4,-9999,N/A,30.12,10.0,Calm,Calm,-,N/A,,Overcast,0,2012-12-29 07:05:00
12:25 AM,10.4,-9999,N/A,30.11,10.0,Calm,Calm,-,N/A,Snow,Light Snow,0,2012-12-29 07:25:00
12:45 AM,12.2,-9999,N/A,30.11,10.0,Calm,Calm,-,N/A,,Overcast,0,2012-12-29 07:45:00
1:05 AM,12.2,-9999,N/A,30.11,10.0,Calm,Calm,-,N/A,,Overcast,0,2012-12-29 08:05:00
1:25 AM,14.0,-9999,N/A,30.11,10.0,SSE,3.5,-,N/A,Snow,Light Snow,160,2012-12-29 08:25:00
1:45 AM,14.0,-9999,N/A,30.11,10.0,Calm,Calm,-,N/A,Snow,Light Snow,0,2012-12-29 08:45:00
2:05 AM,14.0,-9999,N/A,30.11,10.0,South,3.5,-,N/A,Snow,Light Snow,190,2012-12-29 09:05:00
2:25 AM,14.0,-9999,N/A,30.12,10.0,South,3.5,-,N/A,,Overcast,180,2012-12-29 09:25:00
2:45 AM,14.0,-9999,N/A,30.12,9.0,Calm,Calm,-,N/A,Snow,Light Snow,0,2012-12-29 09:45:00
3:05 AM,14.0,-9999,N/A,30.12,8.0,SSE,3.5,-,N/A,Snow,Light Snow,150,2012-12-29 10:05:00
3:25 AM,14.0,-9999,N/A,30.12,10.0,South,4.6,-,N/A,,Overcast,180,2012-12-29 10:25:00
3:45 AM,14.0,-9999,N/A,30.12,10.0,South,3.5,-,N/A,Snow,Light Snow,170,2012-12-29 10:45:00
4:05 AM,14.0,-9999,N/A,30.11,10.0,Calm,Calm,-,N/A,Snow,Light Snow,0,2012-12-29 11:05:00
4:25 AM,14.0,-9999,N/A,30.11,10.0,Calm,Calm,-,N/A,,Overcast,0,2012-12-29 11:25:00
4:45 AM,14.0,-9999,N/A,30.10,10.0,Calm,Calm,-,N/A,,Overcast,0,2012-12-29 11:45:00
5:05 AM,12.2,-9999,N/A,30.10,10.0,Calm,Calm,-,N/A,,Overcast,0,2012-12-29 12:05:00
5:25 AM,12.2,-9999,N/A,30.10,10.0,Calm,Calm,-,N/A,Snow,Light Snow,0,2012-12-29 12:25:00
5:45 AM,12.2,-9999,N/A,30.10,10.0,Calm,Calm,-,N/A,Snow,Light Snow,0,2012-12-29 12:45:00
6:05 AM,12.2,-9999,N/A,30.10,10.0,Calm,Calm,-,N/A,,Overcast,0,2012-12-29 13:05:00
6:25 AM,12.2,-9999,N/A,30.10,10.0,Calm,Calm,-,N/A,,Overcast,0,2012-12-29 13:25:00
6:45 AM,10.4,-9999,N/A,30.10,10.0,Calm,Calm,-,N/A,,Overcast,0,2012-12-29 13:45:00
7:05 AM,10.4,-9999,N/A,30.09,10.0,Calm,Calm,-,N/A,,Overcast,0,2012-12-29 14:05:00
7:25 AM,8.6,-9999,N/A,30.09,10.0,Calm,Calm,-,N/A,,Overcast,0,2012-12-29 14:25:00
7:45 AM,8.6,-9999,N/A,30.09,10.0,Calm,Calm,-,N/A,,Mostly Cloudy,0,2012-12-29 14:45:00
8:05 AM,8.6,-9999,N/A,30.09,10.0,Calm,Calm,-,N/A,,Mostly Cloudy,0,2012-12-29 15:05:00
8:25 AM,8.6,-9999,N/A,30.09,10.0,Calm,Calm,-,N/A,,Scattered Clouds,0,2012-12-29 15:25:00
8:45 AM,6.8,-9999,N/A,30.09,10.0,Calm,Calm,-,N/A,,Mostly Cloudy,0,2012-12-29 15:45:00
9:05 AM,6.8,-9999,N/A,30.08,10.0,Calm,Calm,-,N/A,,Overcast,0,2012-12-29 16:05:00
9:25 AM,6.8,-9999,N/A,30.08,10.0,Calm,Calm,-,N/A,,Mostly Cloudy,0,2012-12-29 16:25:00
9:45 AM,10.4,-9999,N/A,30.08,10.0,Calm,Calm,-,N/A,,Partly Cloudy,0,2012-12-29 16:45:00
10:05 AM,10.4,-9999,N/A,30.08,10.0,Calm,Calm,-,N/A,,Clear,0,2012-12-29 17:05:00
10:25 AM,12.2,-9999,N/A,30.08,10.0,Calm,Calm,-,N/A,,Mostly Cloudy,0,2012-12-29 17:25:00
10:45 AM,14.0,-9999,N/A,30.08,10.0,Calm,Calm,-,N/A,,Partly Cloudy,0,2012-12-29 17:45:00
11:05 AM,14.0,-9999,N/A,30.06,10.0,Calm,Calm,-,N/A,,Clear,0,2012-12-29 18:05:00
11:45 AM,14.0,-9999,N/A,30.04,10.0,Calm,Calm,-,N/A,,Clear,0,2012-12-29 18:45:00
12:05 PM,15.8,-9999,N/A,30.03,10.0,Calm,Calm,-,N/A,,Mostly Cloudy,0,2012-12-29 19:05:00
12:25 PM,15.8,-9999,N/A,30.01,10.0,Calm,Calm,-,N/A,,Mostly Cloudy,0,2012-12-29 19:25:00
12:45 PM,15.8,-9999,N/A,30.00,10.0,Calm,Calm,-,N/A,,Partly Cloudy,0,2012-12-29 19:45:00
1:05 PM,17.6,-9999,N/A,29.99,10.0,Calm,Calm,-,N/A,,Partly Cloudy,0,2012-12-29 20:05:00
1:25 PM,15.8,-9999,N/A,29.98,10.0,Calm,Calm,-,N/A,,Partly Cloudy,0,2012-12-29 20:25:00
1:45 PM,15.8,-9999,N/A,29.97,10.0,Calm,Calm,-,N/A,,Mostly Cloudy,0,2012-12-29 20:45:00
2:05 PM,17.6,-9999,N/A,29.96,10.0,Calm,Calm,-,N/A,,Scattered Clouds,0,2012-12-29 21:05:00
2:25 PM,17.6,-9999,N/A,29.95,10.0,NE,4.6,-,N/A,,Mostly Cloudy,40,2012-12-29 21:25:00
2:45 PM,17.6,-9999,N/A,29.95,10.0,NNE,3.5,-,N/A,,Overcast,30,2012-12-29 21:45:00
3:05 PM,17.6,-9999,N/A,29.95,10.0,NNE,3.5,-,N/A,,Overcast,30,2012-12-29 22:05:00
3:25 PM,17.6,-9999,N/A,29.95,10.0,NNW,3.5,-,N/A,,Overcast,330,2012-12-29 22:25:00
4:05 PM,17.6,-9999,N/A,29.93,10.0,Calm,Calm,-,N/A,,Overcast,0,2012-12-29 23:05:00
4:25 PM,17.6,-9999,N/A,29.93,10.0,Calm,Calm,-,N/A,,Overcast,0,2012-12-29 23:25:00
4:45 PM,15.8,-9999,N/A,29.93,10.0,Calm,Calm,-,N/A,,Overcast,0,2012-12-29 23:45:00
5:05 PM,14.0,-9999,N/A,29.92,10.0,Calm,Calm,-,N/A,,Overcast,0,2012-12-30 00:05:00
5:25 PM,14.0,-9999,N/A,29.92,10.0,Calm,Calm,-,N/A,,Overcast,0,2012-12-30 00:25:00
5:45 PM,12.2,-9999,N/A,29.92,10.0,Calm,Calm,-,N/A,,Overcast,0,2012-12-30 00:45:00
6:05 PM,8.6,-9999,N/A,29.91,10.0,Calm,Calm,-,N/A,,Overcast,0,2012-12-30 01:05:00
6:25 PM,6.8,-9999,N/A,29.91,10.0,Calm,Calm,-,N/A,,Overcast,0,2012-12-30 01:25:00
6:45 PM,6.8,-9999,N/A,29.91,10.0,Calm,Calm,-,N/A,,Overcast,0,2012-12-30 01:45:00
7:05 PM,5.0,-9999,N/A,29.91,10.0,Calm,Calm,-,N/A,,Overcast,0,2012-12-30 02:05:00
7:45 PM,5.0,-9999,N/A,29.91,10.0,Calm,Calm,-,N/A,,Overcast,0,2012-12-30 02:45:00
8:05 PM,5.0,-9999,N/A,29.91,10.0,Calm,Calm,-,N/A,,Overcast,0,2012-12-30 03:05:00
8:25 PM,5.0,-9999,N/A,29.90,10.0,Calm,Calm,-,N/A,,Overcast,0,2012-12-30 03:25:00
8:45 PM,5.0,-9999,N/A,29.90,10.0,Calm,Calm,-,N/A,,Overcast,0,2012-12-30 03:45:00
9:05 PM,5.0,-9999,N/A,29.91,10.0,Calm,Calm,-,N/A,,Overcast,0,2012-12-30 04:05:00
9:25 PM,1.4,-9999,N/A,29.91,10.0,Calm,Calm,-,N/A,,Overcast,0,2012-12-30 04:25:00
9:45 PM,1.4,-9999,N/A,29.90,10.0,SSE,3.5,-,N/A,,Overcast,150,2012-12-30 04:45:00
10:05 PM,1.4,-9999,N/A,29.90,10.0,Calm,Calm,-,N/A,,Overcast,0,2012-12-30 05:05:00
10:25 PM,-0.4,-9999,N/A,29.91,10.0,Calm,Calm,-,N/A,,Overcast,0,2012-12-30 05:25:00
10:45 PM,-0.4,-9999,N/A,29.91,10.0,Calm,Calm,-,N/A,,Overcast,0,2012-12-30 05:45:00
11:05 PM,-0.4,-9999,N/A,29.91,10.0,Calm,Calm,-,N/A,,Overcast,0,2012-12-30 06:05:00
11:25 PM,-0.4,-9999,N/A,29.91,10.0,Calm,Calm,-,N/A,,Overcast,0,2012-12-30 06:25:00
11:45 PM,-0.4,-9999,N/A,29.91,10.0,Calm,Calm,-,N/A,,Overcast,0,2012-12-30 06:45:00